Location: Bremen
(53.0793°N, 8.8017°E)
Time: 18:46:52
(UTC+02:00)

BlueWalker 3 - Pass Details

Date: 01 March 2024
Orbit: 485 x 495 km, 53.2° (Epoch: 20 April)

Event Time Altitude Azimuth Distance (km) Brightness Sun altitude
Rises 20:23:46 0° 285° (WNW) 2,563 7.1 -21.6°
Reaches altitude 10° 20:26:10 10° 273° (W) 1,677 5.6 -21.9°
Maximum altitude 20:29:22 26° 215° (SW) 976 3.5 -22.4°
Enters shadow 20:29:45 26° 204° (SSW) 989 3.4 -22.4°
